Stanton, MN

11:59 AM CDT on March 29, 2017 (GMT -0500)
Stanton

Weather History for KSYN - November, 2011

Change the Weather History Date:

Thursday, November 24, 2011

  Actual Average (KLVN) Record (KLVN)
Temperature  
Mean Temperature 48 °F -  
Max Temperature 59 °F 35 °F 59 °F (1990)
Min Temperature 37 °F 17 °F -10 °F (1951)
Degree Days  
Heating Degree Days 17    
Moisture  
Dew Point 39 °F    
Average Humidity 74    
Maximum Humidity 89    
Minimum Humidity 52    
Precipitation  
Precipitation 0.00 in - - ()
Sea Level Pressure  
Sea Level Pressure 29.86 in    
Wind  
Wind Speed 12 mph (South)    
Max Wind Speed 20 mph    
Max Gust Speed 28 mph    
Visibility 7 miles    
Events      
Averages and records for this station are not official NWS values.
T = Trace of Precipitation, MM = Missing Value Source: NWS Daily Summary

Daily Weather History Graph

Daily Weather History Graph

Search for Another Location

Airport or City:

Trip Planner

Search our weather history database for the weather conditions in past years. The results will help you decide how hot, cold, wet, or windy it might be!

Date:

Astronomy

Nov. 24, 2011 Rise Set
Actual Time 7:19 AM CST 4:37 PM CST
Civil Twilight 6:47 AM CST 5:09 PM CST
Nautical Twilight 6:11 AM CST 5:45 PM CST
Astronomical Twilight 5:36 AM CST 6:20 PM CST
Moon 6:39 AM CST (11/24) 4:07 PM CST (11/24)
Length of Visible Light 10h 22m
Length of Day
9h 17m
Waning Crescent, 0% of the Moon is Illuminated
Nov 24
Waning Crescent
Nov 25
New
Dec 2
First Quarter
Dec 10
Full
Dec 17
Last Quarter

Hourly Weather History & Observations

Time (CST) Temp. Windchill Dew Point Humidity Pressure Visibility Wind Dir Wind Speed Gust Speed Precip Events Conditions
12:14 AM 38.3 °F 31.9 °F 34.2 °F 85% 30.02 in 4.0 mi South 9.2 mph - N/A   Clear
12:34 AM 37.6 °F 31.0 °F 33.8 °F 86% 30.01 in 4.0 mi South 9.2 mph - N/A   Clear
12:53 AM 37.4 °F 30.8 °F 33.8 °F 87% 30.00 in 4.0 mi South 9.2 mph - N/A   Clear
1:14 AM 37.6 °F 31.0 °F 34.2 °F 87% 29.99 in 4.0 mi South 9.2 mph - N/A   Clear
1:34 AM 37.9 °F 30.9 °F 34.7 °F 88% 29.99 in 4.0 mi South 10.4 mph - N/A   Clear
1:53 AM 37.9 °F 30.5 °F 34.7 °F 88% 29.98 in 4.0 mi South 11.5 mph - N/A   Clear
2:14 AM 38.3 °F 30.9 °F 34.9 °F 87% 29.98 in 4.0 mi South 11.5 mph - N/A   Clear
2:34 AM 38.1 °F 31.7 °F 34.7 °F 87% 29.97 in 4.0 mi South 9.2 mph - N/A   Clear
2:53 AM 37.8 °F 31.3 °F 34.7 °F 89% 29.96 in 4.0 mi South 9.2 mph - N/A   Clear
3:13 AM 38.3 °F 31.9 °F 34.9 °F 87% 29.96 in 4.0 mi South 9.2 mph - N/A   Clear
3:34 AM 37.9 °F 30.5 °F 34.7 °F 88% 29.95 in 4.0 mi South 11.5 mph - N/A   Clear
3:54 AM 38.3 °F 30.5 °F 34.9 °F 87% 29.95 in 4.0 mi South 12.7 mph - N/A   Clear
4:13 AM 38.3 °F 31.9 °F 34.7 °F 87% 29.94 in 4.0 mi South 9.2 mph - N/A   Clear
4:34 AM 37.9 °F 30.0 °F 34.7 °F 88% 29.93 in 4.0 mi South 12.7 mph 16.1 mph N/A   Clear
4:53 AM 38.3 °F 30.9 °F 35.2 °F 89% 29.93 in 4.0 mi South 11.5 mph 17.3 mph N/A   Clear
5:13 AM 38.5 °F 31.6 °F 35.2 °F 88% 29.92 in 4.0 mi South 10.4 mph 17.3 mph N/A   Clear
5:34 AM 38.7 °F 31.8 °F 35.6 °F 89% 29.92 in 4.0 mi South 10.4 mph 19.6 mph N/A   Clear
5:53 AM 39.2 °F 32.0 °F 35.6 °F 87% 29.92 in 4.0 mi South 11.5 mph - N/A   Clear
6:14 AM 39.2 °F 32.5 °F 35.8 °F 88% 29.92 in 4.0 mi South 10.4 mph 16.1 mph N/A   Clear
6:34 AM 39.0 °F 32.3 °F 36.0 °F 89% 29.91 in 4.0 mi South 10.4 mph 18.4 mph N/A   Clear
6:53 AM 39.2 °F 31.6 °F 36.0 °F 88% 29.91 in 4.0 mi South 12.7 mph 18.4 mph N/A   Clear
7:34 AM 39.9 °F 32.9 °F 36.3 °F 87% 29.90 in 4.0 mi South 11.5 mph - N/A   Clear
7:53 AM 40.5 °F 33.2 °F 36.5 °F 86% 29.89 in 4.0 mi South 12.7 mph 21.9 mph N/A   Haze
8:14 AM 41.2 °F 32.4 °F 36.9 °F 85% 29.88 in 4.0 mi South 18.4 mph 23.0 mph N/A   Clear
8:34 AM 42.8 °F 35.8 °F 37.6 °F 82% 29.88 in 4.0 mi South 13.8 mph 20.7 mph N/A   Haze
8:53 AM 43.0 °F 35.7 °F 37.6 °F 81% 29.89 in 4.0 mi South 15.0 mph 21.9 mph N/A   Haze
9:14 AM 43.7 °F 36.0 °F 38.3 °F 81% 29.88 in 5.0 mi South 17.3 mph 23.0 mph N/A   Haze
9:34 AM 45.3 °F 37.6 °F 38.8 °F 78% 29.87 in 5.0 mi South 19.6 mph 26.5 mph N/A   Haze
9:53 AM 46.4 °F 39.5 °F 39.2 °F 76% 29.86 in 5.0 mi South 17.3 mph 27.6 mph N/A   Haze
10:14 AM 47.5 °F - 40.1 °F 76% 29.86 in 7.0 mi South 17.3 mph 25.3 mph N/A   Clear
10:33 AM 49.8 °F - 41.0 °F 72% 29.87 in 7.0 mi South 17.3 mph 21.9 mph N/A   Clear
10:54 AM 50.4 °F - 40.6 °F 69% 29.86 in 7.0 mi South 16.1 mph 20.7 mph N/A   Clear
11:14 AM 51.8 °F - 41.0 °F 67% 29.85 in 10.0 mi South 15.0 mph 23.0 mph N/A   Clear
11:34 AM 52.3 °F - 41.0 °F 65% 29.83 in 10.0 mi South 18.4 mph 24.2 mph N/A   Clear
11:54 AM 52.9 °F - 41.4 °F 65% 29.83 in 10.0 mi South 15.0 mph 25.3 mph N/A   Clear
12:14 PM 52.9 °F - 41.7 °F 66% 29.81 in 10.0 mi South 16.1 mph 23.0 mph N/A   Clear
12:33 PM 53.6 °F - 41.4 °F 63% 29.81 in 10.0 mi South 18.4 mph 23.0 mph N/A   Clear
12:54 PM 54.1 °F - 41.9 °F 63% 29.80 in 10.0 mi South 15.0 mph 21.9 mph N/A   Clear
1:14 PM 54.5 °F - 41.7 °F 62% 29.79 in 10.0 mi South 18.4 mph 23.0 mph N/A   Clear
1:33 PM 54.7 °F - 42.1 °F 62% 29.79 in 10.0 mi South 10.4 mph - N/A   Clear
2:14 PM 59.0 °F - 42.3 °F 54% 29.77 in 10.0 mi SSW 15.0 mph 21.9 mph N/A   Clear
2:34 PM 59.5 °F - 42.6 °F 54% 29.76 in 10.0 mi South 15.0 mph 21.9 mph N/A   Clear
3:14 PM 58.3 °F - 43.0 °F 57% 29.76 in 10.0 mi South 11.5 mph 17.3 mph N/A   Clear
3:34 PM 58.1 °F - 43.3 °F 58% 29.76 in 10.0 mi South 11.5 mph 16.1 mph N/A   Clear
3:54 PM 59.0 °F - 43.7 °F 57% 29.75 in 10.0 mi South 10.4 mph - N/A   Clear
4:14 PM 59.9 °F - 42.4 °F 52% 29.75 in 10.0 mi South 12.7 mph 18.4 mph N/A   Clear
4:34 PM 59.4 °F - 41.9 °F 52% 29.75 in 10.0 mi South 11.5 mph 18.4 mph N/A   Clear
4:53 PM 58.5 °F - 41.7 °F 54% 29.75 in 10.0 mi South 11.5 mph 17.3 mph N/A   Clear
5:14 PM 56.5 °F - 41.5 °F 57% 29.76 in 10.0 mi South 9.2 mph - N/A   Clear
5:33 PM 54.1 °F - 41.2 °F 62% 29.76 in 10.0 mi South 5.8 mph - N/A   Clear
5:54 PM 52.9 °F - 41.0 °F 64% 29.76 in 10.0 mi South 4.6 mph - N/A   Clear
6:13 PM 51.3 °F - 40.3 °F 66% 29.76 in 10.0 mi South 4.6 mph - N/A   Clear
6:54 PM 53.6 °F - 41.4 °F 63% 29.75 in 10.0 mi South 9.2 mph - N/A   Clear
7:13 PM 53.6 °F - 41.5 °F 64% 29.74 in 10.0 mi South 10.4 mph - N/A   Clear
7:34 PM 53.1 °F - 41.7 °F 65% 29.74 in 10.0 mi South 10.4 mph - N/A   Clear
7:54 PM 53.4 °F - 41.9 °F 65% 29.73 in 10.0 mi South 11.5 mph 17.3 mph N/A   Clear
8:13 PM 53.1 °F - 41.9 °F 66% 29.73 in 10.0 mi SSW 9.2 mph - N/A   Clear
8:34 PM 52.9 °F - 42.1 °F 67% 29.72 in 10.0 mi South 12.7 mph - N/A   Clear
8:54 PM 53.2 °F - 41.9 °F 65% 29.71 in 10.0 mi South 13.8 mph - N/A   Clear
9:13 PM 53.6 °F - 41.9 °F 65% 29.70 in 10.0 mi South 10.4 mph - N/A   Clear
9:34 PM 53.2 °F - 41.5 °F 65% 29.69 in 10.0 mi South 12.7 mph 17.3 mph N/A   Clear
9:54 PM 53.6 °F - 41.2 °F 63% 29.69 in 10.0 mi South 15.0 mph 20.7 mph N/A   Clear
10:13 PM 53.6 °F - 41.0 °F 62% 29.69 in 10.0 mi South 15.0 mph 23.0 mph N/A   Clear
10:34 PM 53.2 °F - 40.5 °F 62% 29.69 in 10.0 mi SSW 10.4 mph - N/A   Clear
11:34 PM 55.2 °F - 40.6 °F 58% 29.69 in 10.0 mi SSW 20.7 mph 25.3 mph N/A   Clear
11:53 PM 54.9 °F - 40.6 °F 59% 29.69 in 10.0 mi SSW 17.3 mph 24.2 mph N/A   Clear